DW7394 Weather Reports


Display with metric or nautical units.
time (UTC)temp
F
wind
direction
speed
MPH
gust
MPH
rain 1hr
in
rain 24hr
in
rain mn
in
humidity
%
barometer
mb
20260901224534 84 295 5.0 21.0 0.00 0.00 0.00 65 1013.9
20260901224033 84 240 7.0 21.0 0.00 0.00 0.00 65 1013.8
20260901223533 84 295 5.0 18.0 0.00 0.00 0.00 65 1013.8
20260901223041 85 264 6.0 23.0 0.00 0.00 0.00 65 1014.0
20260901222533 85 208 9.0 23.0 0.00 0.00 0.00 65 1014.1
20260901222032 85 250 6.0 23.0 0.00 0.00 0.00 64 1014.0
20260901221532 85 269 8.0 25.0 0.00 0.00 0.00 64 1014.0
20260901221033 85 254 9.0 30.0 0.00 0.00 0.00 66 1013.9
20260901220532 85 335 12.0 30.0 0.00 0.00 0.00 66 1013.9
20260901220042 85 250 15.0 26.0 0.00 0.00 0.00 66 1013.8
20260901215535 85 243 12.0 26.0 0.00 0.00 0.00 67 1013.7
20260901215029 86 186 10.0 27.0 0.00 0.00 0.00 67 1013.8
20260901214533 86 238 12.0 27.0 0.00 0.00 0.00 66 1013.6
20260901214030 86 235 8.0 22.0 0.00 0.00 0.00 67 1013.6
20260901213527 86 178 6.0 22.0 0.00 0.00 0.00 67 1013.5
20260901213027 86 266 12.0 24.0 0.00 0.00 0.00 67 1013.4
20260901212527 86 271 13.0 24.0 0.00 0.00 0.00 67 1013.4
20260901212028 87 355 12.0 22.0 0.00 0.00 0.00 67 1013.5
20260901211526 87 232 11.0 24.0 0.00 0.00 0.00 68 1013.6
20260901211026 87 224 11.0 24.0 0.00 0.00 0.00 68 1013.6
20260901210525 87 228 5.0 16.0 0.00 0.00 0.00 68 1013.6
20260901210028 87 264 8.0 15.0 0.00 0.00 0.00 68 1013.6
20260901205524 87 222 5.0 24.0 0.00 0.00 0.00 68 1013.6
20260901205022 87 243 6.0 24.0 0.00 0.00 0.00 68 1013.7
20260901204522 86 233 11.0 24.0 0.00 0.00 0.00 68 1013.6
20260901204021 87 238 11.0 19.0 0.00 0.00 0.00 69 1013.6
20260901203521 86 41 6.0 19.0 0.00 0.00 0.00 68 1013.6
20260901203040 87 264 7.0 18.0 0.00 0.00 0.00 69 1013.7
20260901202520 87 234 10.0 19.0 0.00 0.00 0.00 68 1013.7
20260901202020 87 309 8.0 25.0 0.00 0.00 0.00 67 1013.8
20260901201520 87 309 9.0 25.0 0.00 0.00 0.00 67 1013.7
20260901201020 87 236 6.0 17.0 0.00 0.00 0.00 67 1013.7
20260901200519 87 215 7.0 17.0 0.00 0.00 0.00 67 1013.7
20260901200019 87 231 7.0 27.0 0.00 0.00 0.00 66 1013.7
20260901195518 88 208 15.0 27.0 0.00 0.00 0.00 65 1013.8
20260901195019 88 247 7.0 21.0 0.00 0.00 0.00 65 1013.6
20260901194517 88 250 11.0 21.0 0.00 0.00 0.00 65 1013.6
20260901194018 89 248 10.0 21.0 0.00 0.00 0.00 65 1013.7
20260901193517 89 215 10.0 18.0 0.00 0.00 0.00 65 1013.5
20260901193017 89 236 5.0 15.0 0.00 0.00 0.00 64 1013.5
20260901192516 89 245 6.0 17.0 0.00 0.00 0.00 64 1013.5
20260901192016 89 201 9.0 17.0 0.00 0.00 0.00 65 1013.5
20260901191516 89 173 7.0 14.0 0.00 0.00 0.00 64 1013.5
20260901191014 89 281 7.0 18.0 0.00 0.00 0.00 63 1013.4
20260901190514 89 247 8.0 18.0 0.00 0.00 0.00 64 1013.5
20260901190020 89 218 9.0 17.0 0.00 0.00 0.00 63 1013.4
20260901185513 88 255 8.0 15.0 0.00 0.00 0.00 65 1013.4
20260901185014 88 161 6.0 17.0 0.00 0.00 0.00 64 1013.3
20260901184511 88 182 6.0 17.0 0.00 0.00 0.00 64 1013.3
20260901184009 88 271 8.0 17.0 0.00 0.00 0.00 64 1013.5
20260901183509 88 205 10.0 20.0 0.00 0.00 0.00 64 1013.5
20260901183015 88 230 11.0 20.0 0.00 0.00 0.00 64 1013.6
20260901182508 87 274 10.0 18.0 0.00 0.00 0.00 65 1013.5
20260901182006 87 223 8.0 15.0 0.00 0.00 0.00 65 1013.6
20260901181506 87 217 5.0 24.0 0.00 0.00 0.00 66 1013.6
20260901181005 86 259 10.0 24.0 0.00 0.00 0.00 66 1013.7
20260901180504 86 259 9.0 22.0 0.00 0.00 0.00 65 1013.8
20260901180003 86 217 9.0 23.0 0.00 0.00 0.00 66 1013.9
20260901175502 87 173 11.0 23.0 0.00 0.00 0.00 67 1013.9
20260901175003 87 210 12.0 24.0 0.00 0.00 0.00 67 1013.9
20260901174503 87 217 11.0 24.0 0.00 0.00 0.00 66 1013.9
20260901174002 87 228 6.0 21.0 0.00 0.00 0.00 65 1013.7
20260901173502 88 244 11.0 21.0 0.00 0.00 0.00 65 1013.8
20260901173001 88 239 8.0 20.0 0.00 0.00 0.00 65 1013.9
20260901172504 88 293 9.0 21.0 0.00 0.00 0.00 64 1013.9
20260901172101 89 243 7.0 21.0 0.00 0.00 0.00 63 1013.9
20260901171605 89 246 10.0 21.0 0.00 0.00 0.00 64 1013.9
20260901171059 88 235 11.0 22.0 0.00 0.00 0.00 65 1014.1
20260901170558 88 212 12.0 22.0 0.00 0.00 0.00 65 1014.1
20260901170100 88 217 8.0 24.0 0.00 0.00 0.00 65 1014.2
20260901165555 88 298 7.0 24.0 0.00 0.00 0.00 66 1014.2
20260901165055 88 226 11.0 21.0 0.00 0.00 0.00 66 1014.3
20260901164554 87 214 9.0 18.0 0.00 0.00 0.00 66 1014.4
20260901164054 87 271 7.0 18.0 0.00 0.00 0.00 66 1014.4
20260901163551 87 217 6.0 21.0 0.00 0.00 0.00 67 1014.5
20260901163051 87 225 8.0 21.0 0.00 0.00 0.00 67 1014.5
20260901162549 87 264 7.0 19.0 0.00 0.00 0.00 67 1014.5
20260901162049 86 274 6.0 19.0 0.00 0.00 0.00 67 1014.6
20260901161554 86 280 9.0 20.0 0.00 0.00 0.00 68 1014.5
20260901161028 86 224 12.0 20.0 0.00 0.00 0.00 68 1014.5
20260901160532 85 233 2.0 13.0 0.00 0.00 0.00 67 1014.5
20260901160026 85 182 8.0 13.0 0.00 0.00 0.00 69 1014.5
20260901155525 85 271 6.0 13.0 0.00 0.00 0.00 69 1014.5
20260901155024 85 335 6.0 16.0 0.00 0.00 0.00 69 1014.4
20260901154526 84 309 6.0 16.0 0.00 0.00 0.00 70 1014.4
20260901154021 84 32 3.0 15.0 0.00 0.00 0.00 69 1014.3
20260901153523 84 218 4.0 16.0 0.00 0.00 0.00 70 1014.5
20260901153029 84 342 5.0 20.0 0.00 0.00 0.00 70 1014.5
20260901152518 83 273 6.0 20.0 0.00 0.00 0.00 70 1014.4
20260901152018 83 253 6.0 18.0 0.00 0.00 0.00 71 1014.6
20260901151518 83 356 6.0 18.0 0.00 0.00 0.00 72 1014.6
20260901151016 82 95 7.0 18.0 0.00 0.00 0.00 72 1014.6
20260901150515 82 297 7.0 19.0 0.00 0.00 0.00 72 1014.7
20260901150027 82 230 10.0 19.0 0.00 0.00 0.00 73 1014.6
20260901145516 82 245 9.0 17.0 0.00 0.00 0.00 73 1014.6
20260901145012 82 184 10.0 17.0 0.00 0.00 0.00 73 1014.6
20260901144511 82 232 6.0 15.0 0.00 0.00 0.00 73 1014.5
20260901144009 81 243 3.0 16.0 0.00 0.00 0.00 73 1014.6
20260901143508 81 247 9.0 16.0 0.00 0.00 0.00 73 1014.7
20260901143007 81 257 5.0 14.0 0.00 0.00 0.00 72 1014.6
20260901142507 81 220 4.0 20.0 0.00 0.00 0.00 72 1014.5
20260901142006 81 305 8.0 20.0 0.00 0.00 0.00 73 1014.5
20260901141506 81 247 10.0 18.0 0.00 0.00 0.00 74 1014.5
20260901141003 81 278 4.0 15.0 0.00 0.00 0.00 73 1014.4
20260901140503 80 239 6.0 15.0 0.00 0.00 0.00 74 1014.4
20260901140004 80 234 4.0 14.0 0.00 0.00 0.00 74 1014.3
20260901135502 80 274 6.0 14.0 0.00 0.00 0.00 75 1014.2
20260901135102 80 279 3.0 14.0 0.00 0.00 0.00 75 1014.1
20260901134600 80 257 4.0 15.0 0.00 0.00 0.00 75 1014.1
20260901134102 80 206 6.0 19.0 0.00 0.00 0.00 75 1014.1
20260901133558 79 220 10.0 19.0 0.00 0.00 0.00 75 1014.2
20260901133106 79 238 7.0 19.0 0.00 0.00 0.00 76 1014.1
20260901132557 79 232 4.0 17.0 0.00 0.00 0.00 76 1014.2
20260901132059 79 313 6.0 15.0 0.00 0.00 0.00 76 1014.3
20260901131656 79 247 8.0 16.0 0.00 0.00 0.00 76 1014.4
20260901131056 79 217 7.0 16.0 0.00 0.00 0.00 76 1014.4
20260901130554 79 305 8.0 19.0 0.00 0.00 0.00 77 1014.4
20260901130053 78 247 8.0 19.0 0.00 0.00 0.00 77 1014.5
20260901125553 78 231 9.0 16.0 0.00 0.00 0.00 78 1014.5
20260901125056 78 234 8.0 16.0 0.00 0.00 0.00 78 1014.6
20260901124551 78 253 6.0 18.0 0.00 0.00 0.00 78 1014.6
20260901124049 77 226 4.0 18.0 0.00 0.00 0.00 78 1014.6
20260901123549 77 235 6.0 12.0 0.00 0.00 0.00 79 1014.5
20260901123049 77 243 6.0 12.0 0.00 0.00 0.00 79 1014.5
20260901122548 77 264 4.0 14.0 0.00 0.00 0.00 79 1014.6
20260901122148 77 264 7.0 14.0 0.00 0.00 0.00 78 1014.6
20260901121539 77 333 7.0 15.0 0.00 0.00 0.00 78 1014.5
20260901121038 77 220 6.0 14.0 0.00 0.00 0.00 78 1014.4
20260901120538 77 252 7.0 14.0 0.00 0.00 0.00 78 1014.5
20260901120046 77 257 8.0 14.0 0.00 0.00 0.00 78 1014.4
20260901115536 77 281 6.0 15.0 0.00 0.00 0.00 78 1014.4
20260901115038 77 264 7.0 16.0 0.00 0.00 0.00 78 1014.4
20260901114534 77 182 6.0 16.0 0.00 0.00 0.00 78 1014.4
20260901114034 77 218 8.0 16.0 0.00 0.00 0.00 78 1014.4
20260901113636 77 288 7.0 13.0 0.00 0.00 0.00 78 1014.5
20260901113036 77 300 5.0 17.0 0.00 0.00 0.00 78 1014.4
20260901112532 77 213 7.0 15.0 0.00 0.00 0.00 78 1014.5
20260901112032 77 223 4.0 15.0 0.00 0.00 0.00 78 1014.4
20260901111532 77 254 5.0 16.0 0.00 0.00 0.00 78 1014.4
20260901111101 77 252 8.0 16.0 0.00 0.00 0.00 77 1014.2
20260901110532 77 264 6.0 15.0 0.00 0.00 0.00 77 1014.2
20260901110030 77 279 8.0 18.0 0.00 0.00 0.00 77 1014.2
20260901105530 77 226 7.0 19.0 0.00 0.00 0.00 77 1014.1
20260901105029 77 252 6.0 19.0 0.00 0.00 0.00 77 1014.1
20260901104542 77 218 7.0 17.0 0.00 0.00 0.00 78 1013.9
20260901104028 77 218 9.0 21.0 0.00 0.00 0.00 78 1013.9
20260901103528 77 236 7.0 21.0 0.00 0.00 0.00 78 1013.9
20260901103028 77 279 8.0 17.0 0.00 0.00 0.00 78 1013.8
20260901102528 77 241 7.0 17.0 0.00 0.00 0.00 78 1013.9
20260901102028 77 231 7.0 15.0 0.00 0.00 0.00 78 1013.8
20260901101627 77 238 10.0 15.0 0.00 0.00 0.00 78 1013.9
20260901101027 77 245 5.0 15.0 0.00 0.00 0.00 78 1013.7
20260901100529 77 245 9.0 15.0 0.00 0.00 0.00 78 1013.7
20260901100027 77 224 7.0 17.0 0.00 0.00 0.00 77 1013.7
20260901095526 77 234 7.0 19.0 0.00 0.00 0.00 77 1013.7
20260901095030 77 239 9.0 19.0 0.00 0.00 0.00 77 1013.8
20260901094527 77 245 8.0 19.0 0.00 0.00 0.00 77 1013.8
20260901094026 77 182 6.0 17.0 0.00 0.00 0.00 77 1013.6
20260901093526 77 253 8.0 17.0 0.00 0.00 0.00 77 1013.7
20260901093025 77 217 10.0 17.0 0.00 0.00 0.00 77 1013.7
20260901092525 77 285 7.0 14.0 0.00 0.00 0.00 77 1013.8
20260901092028 77 217 7.0 17.0 0.00 0.00 0.00 77 1013.7
20260901091525 77 280 9.0 22.0 0.00 0.00 0.00 77 1013.7
20260901091029 77 232 7.0 22.0 0.00 0.00 0.00 77 1013.8
20260901090524 77 239 6.0 15.0 0.00 0.00 0.00 77 1013.8
20260901090030 77 238 9.0 15.0 0.00 0.00 0.00 77 1013.9
20260901085524 77 209 7.0 19.0 0.00 0.00 0.00 77 1013.9
20260901085024 77 202 7.0 20.0 0.00 0.00 0.00 76 1013.9
20260901084525 77 238 8.0 20.0 0.00 0.00 0.00 76 1013.8
20260901084024 77 205 8.0 15.0 0.00 0.00 0.00 76 1013.7
20260901083528 77 225 6.0 14.0 0.00 0.00 0.00 76 1013.7
20260901083023 77 210 6.0 13.0 0.00 0.00 0.00 76 1013.7
20260901082522 77 210 7.0 17.0 0.00 0.00 0.00 76 1013.8
20260901082021 77 240 8.0 18.0 0.00 0.00 0.00 76 1013.8
20260901081522 77 227 8.0 20.0 0.00 0.00 0.00 76 1013.8
20260901081021 77 243 10.0 20.0 0.00 0.00 0.00 76 1013.8
20260901080522 77 191 9.0 18.0 0.00 0.00 0.00 76 1013.8
20260901080030 77 250 11.0 20.0 0.00 0.00 0.00 76 1013.7
20260901075525 77 252 8.0 20.0 0.00 0.00 0.00 76 1013.7
20260901075026 77 193 9.0 16.0 0.00 0.00 0.00 76 1013.8
20260901074520 77 220 8.0 17.0 0.00 0.00 0.00 76 1013.9
20260901074023 77 210 6.0 17.0 0.00 0.00 0.00 76 1013.9
20260901073519 77 212 6.0 19.0 0.00 0.00 0.00 76 1013.9
20260901073020 77 227 10.0 19.0 0.00 0.00 0.00 76 1014.0
20260901072519 77 230 7.0 22.0 0.00 0.00 0.00 76 1013.9
20260901072022 77 202 7.0 22.0 0.00 0.00 0.00 76 1013.9
20260901071520 77 201 8.0 17.0 0.00 0.00 0.00 76 1014.0
20260901071016 77 223 8.0 17.0 0.00 0.00 0.00 76 1014.0
20260901070516 77 218 6.0 13.0 0.00 0.00 0.00 76 1014.1
20260901070015 77 229 6.0 17.0 0.00 0.00 0.00 75 1014.0
20260901065515 77 222 7.0 17.0 0.00 0.00 0.00 76 1014.1
20260901065015 77 224 6.0 15.0 0.00 0.00 0.00 75 1014.0
20260901064516 77 212 7.0 14.0 0.00 0.00 0.00 75 1014.0
20260901064013 77 211 6.0 13.0 0.00 0.00 0.00 75 1014.0
20260901063512 77 203 6.0 14.0 0.00 0.00 0.00 75 1014.0
20260901063012 77 243 8.0 15.0 0.00 0.00 0.00 75 1014.1
20260901062512 77 218 8.0 17.0 0.00 0.00 0.00 75 1014.1
20260901062014 77 218 9.0 17.0 0.00 0.00 0.00 75 1014.1
20260901061512 77 274 7.0 17.0 0.00 0.00 0.00 75 1014.0
20260901061013 77 181 9.0 17.0 0.00 0.00 0.00 75 1014.0
20260901060511 77 225 8.0 15.0 0.00 0.00 0.00 75 1014.0
20260901060009 77 198 7.0 13.0 0.00 0.00 0.00 75 1014.2
20260901055509 77 173 5.0 13.0 0.00 0.00 0.00 75 1014.2
20260901055009 77 203 7.0 12.0 0.00 0.00 0.00 75 1014.2
20260901054509 77 201 4.0 15.0 0.00 0.00 0.00 75 1014.3
20260901054008 77 210 3.0 15.0 0.00 0.00 0.00 74 1014.5
20260901053507 77 211 6.0 13.0 0.00 0.00 0.00 74 1014.5
20260901053009 77 245 6.0 14.0 0.00 0.00 0.00 74 1014.4
20260901052505 77 156 6.0 14.0 0.00 0.00 0.00 74 1014.5
20260901052009 77 202 6.0 13.0 0.00 0.00 0.00 74 1014.6
20260901051506 77 194 5.0 16.0 0.00 0.00 0.00 75 1014.6
20260901051004 77 220 5.0 16.0 0.00 0.00 0.00 75 1014.5
20260901050505 77 153 5.0 11.0 0.00 0.00 0.00 75 1014.5
20260901050003 77 181 5.0 10.0 0.00 0.00 0.00 75 1014.6
20260901045503 77 204 5.0 10.0 0.00 0.00 0.00 75 1014.6
20260901045002 77 203 5.0 10.0 0.00 0.00 0.00 75 1014.7
20260901044501 77 224 3.0 10.0 0.00 0.00 0.00 75 1014.7
20260901044101 77 226 5.0 10.0 0.00 0.00 0.00 75 1014.6
20260901043600 77 181 5.0 10.0 0.00 0.00 0.00 75 1014.6
20260901043124 76 240 4.0 13.0 0.00 0.00 0.00 76 1014.6
20260901042557 76 206 4.0 13.0 0.00 0.00 0.00 76 1014.6
20260901042056 76 165 4.0 12.0 0.00 0.00 0.00 76 1014.5
20260901041556 76 274 5.0 12.0 0.00 0.00 0.00 77 1014.5
20260901041056 76 173 5.0 10.0 0.00 0.00 0.00 78 1014.5
20260901040553 75 180 5.0 10.0 0.00 0.00 0.00 78 1014.4
20260901040106 75 185 5.0 10.0 0.00 0.00 0.00 79 1014.6
20260901035552 75 187 4.0 9.0 0.00 0.00 0.00 80 1014.8
20260901035051 75 218 4.0 9.0 0.00 0.00 0.00 80 1014.7
20260901034558 76 197 3.0 8.0 0.00 0.00 0.00 80 1014.7
20260901034051 76 201 2.0 7.0 0.00 0.00 0.00 80 1014.8
20260901033551 76 188 3.0 6.0 0.00 0.00 0.00 79 1014.7
20260901033107 76 185 1.0 6.0 0.00 0.00 0.00 79 1014.7
20260901032555 76 194 2.0 6.0 0.00 0.00 0.00 79 1014.7
20260901032052 76 173 2.0 6.0 0.00 0.00 0.00 79 1014.6
20260901031607 77 137 2.0 6.0 0.00 0.00 0.00 78 1014.7
20260901031050 77 204 3.0 6.0 0.00 0.00 0.00 78 1014.7
20260901030550 77 119 3.0 6.0 0.00 0.00 0.00 77 1014.8
20260901030052 76 144 2.0 9.0 0.00 0.00 0.00 77 1014.9
20260901025550 76 194 5.0 9.0 0.00 0.00 0.00 77 1014.9
20260901025050 76 198 3.0 10.0 0.00 0.00 0.00 76 1014.9
20260901024550 76 208 2.0 10.0 0.00 0.00 0.00 76 1014.8
20260901024049 76 231 3.0 9.0 0.00 0.00 0.00 76 1014.7
20260901023548 76 196 3.0 12.0 0.00 0.00 0.00 76 1014.5
20260901023052 76 213 6.0 12.0 0.00 0.00 0.00 76 1014.6
20260901022548 76 201 6.0 10.0 0.00 0.00 0.00 76 1014.5
20260901022048 76 162 5.0 10.0 0.00 0.00 0.00 76 1014.6
20260901021548 76 224 3.0 7.0 0.00 0.00 0.00 75 1014.7
20260901021048 76 189 3.0 9.0 0.00 0.00 0.00 75 1014.8
20260901020547 77 234 4.0 9.0 0.00 0.00 0.00 75 1014.9
20260901020047 77 229 3.0 10.0 0.00 0.00 0.00 74 1014.9
20260901015547 77 194 4.0 10.0 0.00 0.00 0.00 74 1014.9
20260901015046 77 233 2.0 7.0 0.00 0.00 0.00 74 1014.8
20260901014556 77 192 3.0 7.0 0.00 0.00 0.00 74 1014.9
20260901014045 77 264 3.0 6.0 0.00 0.00 0.00 74 1014.9
20260901013546 78 201 4.0 6.0 0.00 0.00 0.00 74 1015.0
20260901013049 78 188 3.0 4.0 0.00 0.00 0.00 73 1015.1
20260901012544 78 173 0.0 3.0 0.00 0.00 0.00 73 1015.2
20260901012144 79 112 0.0 4.0 0.00 0.00 0.00 72 1015.2
20260901011544 79 356 2.0 4.0 0.00 0.00 0.00 72 1015.3
20260901011044 79 342 2.0 4.0 0.00 0.00 0.00 72 1015.1
20260901010544 79 326 0.0 4.0 0.00 0.00 0.00 72 1014.9
20260901010044 79 218 1.0 4.0 0.00 0.00 0.00 72 1014.7
20260901005544 79 180 1.0 6.0 0.00 0.00 0.00 72 1014.6
20260901005046 79 248 1.0 9.0 0.00 0.00 0.00 72 1014.6
20260901004543 79 207 5.0 9.0 0.00 0.00 0.00 72 1014.5
20260901004041 80 179 3.0 10.0 0.00 0.00 0.00 72 1014.6
20260901003545 80 223 5.0 13.0 0.00 0.00 0.00 72 1014.6
20260901003050 80 290 6.0 13.0 0.00 0.00 0.00 72 1014.7
20260901002540 80 281 7.0 13.0 0.00 0.00 0.00 72 1014.9
20260901002040 80 279 5.0 11.0 0.00 0.00 0.00 73 1015.0
20260901001554 80 223 5.0 11.0 0.00 0.00 0.00 73 1015.1
20260901001039 80 331 3.0 10.0 0.00 0.00 0.00 72 1015.0
20260901000539 80 218 4.0 10.0 0.00 0.00 0.00 72 1015.0
20260901000039 80 223 4.0 15.0 0.00 0.00 0.00 71 1015.0
20260831235539 80 208 4.0 15.0 0.00 0.00 0.00 71 1015.0
20260831235041 81 234 4.0 12.0 0.00 0.00 0.00 70 1015.1
20260831234539 81 193 4.0 11.0 0.00 0.00 0.00 70 1015.1
20260831234038 81 198 3.0 9.0 0.00 0.00 0.00 70 1015.1
20260831233537 81 202 4.0 10.0 0.00 0.00 0.00 69 1015.2
20260831233039 81 271 4.0 10.0 0.00 0.00 0.00 69 1015.2
20260831232536 82 269 7.0 11.0 0.00 0.00 0.00 69 1015.2
20260831232036 82 218 6.0 11.0 0.00 0.00 0.00 68 1015.1
20260831231536 82 212 5.0 10.0 0.00 0.00 0.00 68 1015.2
20260831231035 82 212 3.0 10.0 0.00 0.00 0.00 68 1015.2
20260831230535 82 206 4.0 10.0 0.00 0.00 0.00 67 1015.4
20260831230035 83 264 5.0 10.0 0.00 0.00 0.00 67 1015.4
20260831225534 83 231 3.0 8.0 0.00 0.00 0.00 67 1015.4
20260831225034 83 225 3.0 8.0 0.00 0.00 0.00 67 1015.4